Wind_Speed
11 11 10 9 8 8 7 7 7 7 8 9 9 10 11 12 12 12 12 13 14 15 16 16 16 16 17 17 17 17 17 18 18 19 19 19 20 20 20 20 20 20 20
11 11 10 10 9 8 8 8 8 9 9 10 10 10 11 12 12 13 13 13 14 15 15 16 17 17 17 18 17 18 18 19 20 20 20 21 21 21 22 21 21 21 22
11 11 10 10 10 10 10 9 10 10 10 11 11 11 12 13 14 14 14 15 16 16 16 17 17 18 18 18 19 19 19 19 20 20 21 22 22 22 22 22 22 23 23
11 11 11 11 12 12 11 11 11 11 12 13 13 14 14 15 15 15 16 17 17 17 17 17 18 18 18 18 18 19 19 19 20 20 21 22 22 23 23 23 23 24 23
13 12 12 13 13 13 13 14 14 14 14 14 15 16 16 16 16 16 17 17 17 17 18 18 18 18 18 19 19 19 20 20 21 22 22 22 22 23 23 23 23 24 24
15 15 14 14 15 15 15 15 16 16 16 17 17 17 18 18 18 18 18 18 18 19 19 19 19 19 19 20 20 20 21 22 22 22 22 22 23 24 24 25 25 25 25
16 16 16 17 17 17 17 17 17 17 18 18 19 20 19 19 19 20 20 20 20 19 19 20 20 20 20 20 21 21 22 22 23 23 24 24 24 25 25 26 26 27 26
18 18 18 18 18 18 18 18 19 19 20 20 21 21 22 22 22 21 21 22 21 21 21 20 20 20 20 21 21 22 23 24 24 24 24 25 26 26 27 27 27 28 28
20 20 20 20 20 19 19 20 20 21 22 22 22 22 22 22 21 22 22 22 22 22 21 21 22 22 22 23 24 24 25 25 26 26 26 26 27 27 27 28 29 29 30
22 22 22 22 22 21 21 21 21 23 23 23 24 23 23 22 22 22 22 22 22 22 22 22 22 23 24 24 24 25 26 26 26 26 26 27 27 28 29 30 30 31 31
25 25 24 24 24 23 23 23 23 24 24 24 25 24 24 23 22 22 23 23 23 23 23 23 23 24 24 24 24 25 25 26 26 26 27 28 29 29 30 30 31 32 32
27 27 26 26 26 25 25 25 25 25 26 25 25 25 25 24 23 23 23 24 24 24 24 24 24 24 24 25 25 25 25 26 27 27 28 29 30 31 31 32 33 34 34
29 29 28 28 28 27 27 27 27 27 27 26 25 25 25 24 24 24 24 24 25 25 25 25 25 26 26 26 26 27 27 27 28 28 29 30 31 32 33 33 34 35 35
31 31 30 30 29 28 29 29 28 28 28 27 26 26 26 25 26 26 25 25 25 26 27 27 28 28 28 28 28 29 29 29 29 30 31 31 32 33 33 34 35 35 35
33 32 32 32 30 29 29 29 29 28 27 27 28 28 29 28 27 27 26 26 27 27 28 29 29 29 29 30 30 30 30 31 31 31 32 32 33 33 34 34 35 35 35
34 34 33 32 32 31 31 30 30 30 29 29 29 30 30 30 29 28 28 28 29 29 30 30 30 30 30 31 31 31 32 32 32 33 33 34 34 34 35 35 35 35 35
35 35 34 34 33 32 32 31 31 31 31 31 31 32 32 31 30 30 30 31 31 31 31 31 31 31 31 32 32 32 33 33 33 33 34 34 34 35 35 35 35 35 35
36 36 36 36 35 34 33 33 32 32 32 32 33 33 33 33 32 32 33 33 32 32 32 32 33 33 33 33 33 33 33 34 33 33 34 34 35 35 35 35 36 35 35
36 36 36 36 36 35 34 34 34 34 33 33 34 34 34 33 33 34 34 34 34 34 34 34 34 34 34 34 34 34 34 34 34 34 35 35 36 36 36 36 36 36 35
36 36 36 36 36 36 36 35 35 35 35 35 34 34 35 34 35 35 35 35 35 35 35 35 35 35 35 35 34 35 35 35 35 35 35 36 37 37 36 36 36 36 36
36 35 36 36 35 34 35 36 35 35 35 36 36 35 35 35 36 36 36 35 35 35 35 35 36 36 36 36 35 35 35 36 36 37 37 37 37 37 37 36 36 36 36
34 34 33 33 33 33 33 35 35 34 33 34 34 35 35 35 36 36 35 35 35 36 36 36 36 36 36 36 36 36 36 36 36 37 37 37 37 36 36 36 36 35 35
34 34 33 33 33 33 35 35 35 35 34 33 33 33 34 35 35 35 35 35 36 36 36 35 35 35 36 36 36 36 36 36 36 36 37 36 36 36 35 35 35 35 34
33 33 33 33 33 34 33 33 34 33 32 32 33 33 34 34 34 35 35 35 36 36 35 35 35 35 35 35 36 36 36 36 36 36 36 36 35 35 35 35 35 35 34
32 33 33 33 33 33 34 34 34 34 33 33 33 33 33 33 34 34 34 34 34 34 34 34 34 35 35 34 34 35 35 35 36 36 35 35 35 35 35 35 35 35 34
31 32 32 32 33 34 34 34 34 34 33 33 33 33 33 33 33 33 32 32 32 33 33 33 34 34 35 35 35 34 35 35 35 35 35 35 35 35 36 35 35 34 34
Wind_Direction
338 341 342 341 337 332 326 321 318 314 310 305 303 302 302 299 295 293 289 288 287 280 276 277 278 277 277 277 278 280 281 282 282 281 282 281 281 282 282 283 280 279 281
337 338 339 337 333 329 323 316 315 314 311 308 306 301 302 302 298 295 292 290 289 287 281 277 277 278 279 278 278 279 281 282 281 281 281 280 282 282 283 283 284 284 284
335 336 333 333 331 326 323 318 314 310 308 310 309 306 306 305 301 298 294 294 291 287 284 280 278 279 280 280 281 281 282 284 283 280 279 280 282 282 283 284 284 285 285
324 326 327 327 327 324 321 314 310 306 304 305 306 307 307 306 302 299 298 297 295 291 287 283 281 282 282 282 283 283 284 285 285 284 282 281 282 283 285 285 285 284 284
315 320 318 316 317 316 313 313 310 308 306 305 305 306 305 304 302 300 300 298 295 293 290 287 285 285 284 284 284 284 285 285 285 284 284 284 285 285 286 287 286 285 286
309 312 313 313 312 312 310 312 312 309 307 306 306 306 304 302 302 301 300 299 296 293 292 289 289 289 289 286 285 284 285 286 285 285 285 285 286 286 286 286 286 286 287
301 304 307 308 308 310 309 310 310 308 305 305 305 305 303 300 299 298 298 299 297 296 295 292 288 289 291 290 288 286 287 287 287 286 285 285 286 287 288 287 286 287 287
299 302 302 303 303 305 307 308 308 308 307 307 304 302 299 297 296 295 296 296 296 296 295 295 292 291 292 292 290 289 289 288 288 288 287 287 288 289 289 289 289 289 289
294 296 298 297 297 301 303 304 304 305 306 305 302 301 298 296 295 294 295 296 296 297 297 295 293 292 292 292 291 289 288 289 289 288 288 288 288 289 289 290 291 291 291
289 289 290 294 294 296 297 300 302 304 304 303 302 301 299 297 296 294 294 296 297 297 297 297 296 295 294 293 293 290 289 289 289 289 291 291 291 291 290 290 291 291 292
284 285 286 289 291 292 294 296 298 301 303 303 301 298 298 296 295 294 293 294 297 296 296 297 298 298 298 297 296 295 294 292 292 292 293 292 292 292 291 292 292 292 292
280 283 284 286 289 290 291 294 297 300 302 302 301 299 298 297 296 296 293 292 293 294 295 296 297 297 298 299 299 298 297 296 295 294 294 293 293 293 293 293 293 293 293
280 282 282 283 287 291 292 293 297 299 300 299 300 299 298 298 296 295 293 292 292 294 295 296 297 297 297 298 298 298 298 297 296 295 294 293 294 294 294 294 294 294 294
280 282 282 284 289 290 291 293 295 298 297 297 299 300 300 298 296 296 295 294 294 295 296 297 297 297 296 296 297 297 297 297 296 296 295 294 294 294 294 294 294 294 294
281 281 282 285 287 288 291 292 293 295 295 295 297 299 299 298 297 297 297 297 297 297 297 297 297 296 295 295 295 295 296 296 296 296 296 296 296 296 295 295 295 294 294
280 282 282 284 285 286 288 290 291 292 293 294 295 297 298 297 296 296 297 297 297 297 297 297 296 295 294 294 294 294 295 295 295 295 295 295 295 295 295 295 294 294 293
280 281 282 282 283 285 286 286 287 289 290 290 292 293 293 293 292 293 295 296 296 296 297 297 295 295 294 293 293 293 293 294 295 295 295 295 296 296 295 295 295 294 293
279 280 281 282 282 282 283 283 284 286 287 288 289 290 291 291 290 291 292 293 294 295 295 295 295 294 293 294 294 294 293 294 295 296 296 296 296 295 295 295 294 294 293
279 280 281 282 282 281 281 281 282 283 285 286 287 288 289 289 289 289 290 292 293 294 294 294 294 294 293 293 294 294 294 294 295 295 295 296 296 295 294 293 294 294 293
278 280 281 282 282 281 280 281 282 283 284 285 286 286 288 287 287 288 290 290 291 292 293 292 293 293 292 293 293 294 295 295 295 295 295 296 296 295 294 294 293 293 293
277 278 280 282 282 284 282 283 284 283 284 285 284 285 286 287 287 287 288 289 290 291 292 291 291 292 291 292 293 293 293 294 294 294 295 296 295 295 294 293 292 292 292
275 277 278 280 282 284 285 283 285 284 283 285 285 285 286 286 287 287 287 287 289 291 291 291 291 291 291 292 293 293 293 294 295 295 295 295 295 294 294 294 293 293 293
275 276 278 279 281 282 284 284 285 287 285 286 288 287 288 288 287 287 287 287 289 290 291 291 292 291 291 292 293 293 294 295 296 296 295 295 295 295 294 294 293 293 293
276 276 277 279 280 282 284 286 288 289 288 288 289 289 290 291 289 288 288 289 290 290 292 292 292 292 292 293 293 294 295 295 296 296 296 295 295 295 295 294 294 293 293
277 277 278 279 280 281 284 287 288 289 290 288 289 290 291 291 291 289 289 290 291 291 292 293 293 293 293 293 293 293 294 295 295 295 295 295 295 295 294 294 294 293 293
275 276 278 279 281 283 284 286 287 288 289 290 291 291 292 291 290 290 291 292 291 292 292 293 294 294 294 293 293 294 295 295 294 294 295 295 295 295 295 294 294 293 292
Height
5898 5896 5894 5893 5891 5890 5889 5888 5887 5886 5885 5883 5882 5881 5880 5878 5877 5876 5875 5874 5873 5871 5870 5869 5868 5867 5866 5865 5864 5863 5862 5860 5859 5858 5856 5855 5854 5852 5851 5850 5848 5846 5845
5896 5894 5892 5891 5889 5888 5887 5886 5885 5884 5882 5881 5879 5878 5877 5875 5873 5872 5871 5869 5868 5867 5866 5865 5864 5863 5861 5860 5859 5858 5856 5855 5854 5852 5851 5849 5848 5847 5845 5844 5842 5840 5839
5894 5892 5890 5889 5888 5886 5885 5884 5883 5881 5880 5878 5876 5875 5873 5871 5870 5868 5866 5865 5864 5862 5861 5860 5858 5857 5856 5855 5853 5852 5851 5850 5848 5847 5845 5844 5842 5841 5839 5838 5836 5834 5833
5892 5890 5889 5887 5886 5884 5883 5881 5880 5878 5877 5875 5873 5871 5869 5867 5866 5864 5862 5860 5859 5857 5856 5855 5853 5852 5851 5849 5848 5846 5845 5844 5842 5841 5839 5838 5836 5834 5833 5831 5830 5828 5826
5890 5888 5887 5885 5883 5882 5880 5878 5877 5875 5873 5871 5869 5867 5865 5863 5861 5859 5858 5856 5854 5852 5851 5849 5848 5846 5845 5843 5842 5841 5839 5838 5836 5835 5833 5831 5830 5828 5826 5825 5823 5821 5819
5888 5886 5884 5882 5880 5878 5876 5874 5873 5871 5869 5867 5865 5863 5861 5859 5857 5855 5853 5851 5849 5847 5845 5844 5842 5840 5839 5837 5836 5835 5833 5832 5830 5829 5827 5825 5823 5822 5820 5818 5816 5814 5812
5883 5882 5880 5878 5876 5874 5872 5870 5868 5867 5865 5863 5861 5858 5856 5854 5852 5850 5848 5846 5844 5842 5840 5838 5836 5835 5833 5831 5830 5828 5827 5825 5824 5823 5820 5818 5817 5814 5812 5810 5808 5806 5805
5879 5877 5876 5874 5872 5870 5868 5866 5864 5862 5860 5858 5855 5853 5851 5849 5846 5844 5843 5841 5839 5837 5835 5833 5831 5829 5827 5825 5823 5821 5820 5818 5817 5815 5813 5811 5809 5807 5805 5803 5801 5798 5796
5874 5873 5871 5869 5867 5865 5863 5861 5859 5857 5855 5852 5850 5847 5845 5843 5841 5839 5837 5834 5833 5831 5829 5827 5825 5823 5820 5818 5817 5815 5813 5811 5809 5807 5805 5803 5801 5799 5797 5795 5792 5790 5788
5869 5867 5866 5864 5862 5860 5858 5856 5854 5851 5849 5846 5844 5841 5839 5837 5835 5833 5831 5829 5827 5825 5823 5821 5819 5816 5814 5811 5810 5807 5805 5803 5801 5799 5797 5795 5793 5791 5788 5786 5784 5781 5779
5862 5860 5859 5857 5855 5854 5852 5850 5848 5845 5842 5840 5837 5835 5833 5830 5829 5827 5825 5823 5821 5818 5817 5814 5812 5810 5807 5805 5803 5800 5798 5796 5793 5791 5789 5786 5784 5782 5779 5777 5774 5772 5769
5854 5853 5852 5850 5848 5847 5845 5843 5841 5839 5836 5834 5831 5829 5826 5824 5822 5820 5818 5816 5814 5812 5810 5808 5805 5803 5801 5798 5796 5793 5791 5788 5786 5783 5781 5778 5776 5773 5771 5768 5765 5762 5759
5847 5845 5844 5843 5841 5839 5837 5836 5834 5832 5830 5827 5825 5823 5820 5818 5816 5814 5812 5809 5807 5805 5803 5800 5798 5796 5793 5791 5788 5786 5783 5780 5778 5775 5772 5770 5767 5764 5761 5758 5755 5752 5748
5839 5837 5836 5835 5834 5832 5831 5828 5826 5824 5822 5821 5819 5816 5814 5811 5809 5807 5804 5802 5800 5797 5795 5793 5790 5788 5785 5783 5780 5777 5775 5772 5769 5766 5763 5760 5757 5754 5751 5748 5745 5742 5739
5830 5829 5828 5827 5825 5823 5822 5820 5819 5817 5815 5813 5812 5809 5807 5805 5802 5800 5797 5795 5792 5790 5787 5785 5782 5779 5777 5774 5772 5769 5766 5763 5760 5757 5754 5751 5748 5744 5741 5738 5735 5731 5728
5821 5820 5819 5818 5817 5816 5815 5812 5810 5809 5807 5805 5803 5802 5799 5797 5794 5792 5790 5787 5784 5782 5779 5776 5774 5771 5768 5765 5763 5760 5757 5754 5751 5747 5744 5741 5738 5735 5731 5728 5725 5721 5718
5812 5810 5809 5809 5808 5807 5806 5804 5802 5801 5799 5797 5795 5793 5791 5788 5786 5784 5781 5779 5776 5773 5770 5767 5765 5762 5759 5756 5753 5750 5747 5744 5741 5737 5734 5731 5728 5724 5721 5717 5714 5711 5707
5802 5801 5800 5799 5798 5797 5796 5794 5793 5791 5790 5788 5786 5784 5782 5779 5777 5774 5772 5770 5767 5764 5761 5758 5755 5753 5750 5746 5743 5740 5737 5734 5731 5727 5724 5721 5717 5714 5711 5707 5704 5700 5697
5791 5791 5790 5789 5788 5786 5785 5784 5783 5781 5780 5778 5776 5774 5772 5769 5767 5765 5762 5760 5758 5755 5751 5748 5745 5742 5739 5736 5733 5730 5727 5724 5721 5717 5714 5710 5707 5703 5700 5697 5693 5690 5686
5781 5781 5780 5779 5778 5776 5775 5773 5772 5771 5769 5767 5765 5763 5761 5759 5757 5755 5752 5750 5747 5744 5741 5738 5735 5732 5729 5726 5723 5720 5717 5713 5710 5707 5703 5700 5696 5692 5689 5686 5682 5679 5676
5771 5771 5770 5769 5768 5766 5765 5763 5761 5760 5758 5756 5754 5752 5751 5749 5746 5744 5741 5739 5736 5733 5731 5728 5725 5722 5718 5715 5712 5709 5706 5703 5699 5696 5692 5688 5685 5681 5678 5674 5671 5668 5665
5761 5761 5760 5759 5758 5756 5755 5753 5750 5749 5747 5745 5743 5741 5739 5737 5735 5732 5730 5727 5725 5722 5720 5717 5714 5711 5708 5704 5701 5698 5695 5692 5688 5684 5681 5677 5674 5670 5667 5664 5660 5657 5654
5751 5750 5750 5749 5748 5746 5745 5743 5740 5738 5736 5735 5733 5731 5728 5726 5723 5721 5719 5716 5714 5711 5708 5705 5702 5700 5696 5693 5690 5687 5684 5680 5677 5673 5670 5666 5663 5659 5656 5653 5650 5646 5643
5740 5740 5739 5739 5738 5736 5735 5733 5731 5728 5726 5725 5723 5720 5718 5715 5713 5710 5708 5705 5703 5700 5697 5694 5691 5688 5685 5682 5679 5675 5672 5669 5666 5662 5659 5655 5652 5649 5645 5642 5639 5636 5633
5730 5730 5729 5728 5727 5726 5724 5722 5721 5719 5717 5714 5712 5710 5707 5705 5702 5699 5697 5694 5691 5689 5686 5683 5680 5677 5674 5671 5668 5664 5661 5658 5655 5651 5648 5645 5641 5638 5635 5631 5628 5625 5622
5721 5720 5719 5718 5717 5715 5714 5712 5710 5708 5706 5704 5701 5699 5697 5694 5691 5689 5686 5683 5681 5678 5675 5672 5669 5666 5663 5660 5657 5653 5650 5647 5644 5640 5637 5634 5630 5627 5624 5620 5617 5614 5611